[[{"header":{"parameterUnit":"m.s-1","parameterCategory":1,"la1":30.2991,"la2":30.254,"lo1":-89.0895,"lo2":-89.0444,"dy":0.0017,"dx":0.0017,"nx":28,"ny":28,"refTime":"2025-04-07T21:00:00:Z","depth":0,"parameterNumber":2,"parameterNumberName":"U-component_of_WINDS"},"data":[0,0,0,0,0,0,0,0,0,0,0,0,0,0,0,0,0,0,0,0,0,0,0,0,0,0,0,0,0,0,0,0,0,0,0,0,0,0,0,0,0,0,0,0,0,0,0,0,0,0,0,0,0,0,0,0,0,0,3.0281,3.0281,0,3.0298,3.0298,3.0299,3.0252,3.0251,3.0249,3.0248,3.0264,3.0266,3.0268,0,0,0,0,0,0,0,0,0,0,0,0,0,3.0208,3.021,3.0281,3.0281,3.0282,3.0298,3.0298,3.0299,3.0252,3.0251,3.0249,3.0247,3.0264,3.0266,3.0268,0,0,0,0,0,0,0,0,0,0,0,0,0,3.0234,3.021,3.0281,3.0261,3.0259,3.0298,3.0298,3.0299,3.0253,3.0251,3.0248,3.0246,3.0263,3.0266,3.0268,3.0328,0,0,3.0277,3.0278,0,0,0,0,0,0,0,0,3.0233,3.0237,3.0263,3.0262,3.026,3.0271,3.0279,3.0309,3.0253,3.0255,3.0248,3.0245,3.0268,3.027,3.0278,3.0329,3.033,3.0277,3.0278,3.028,3.028,0,0,0,0,0,0,0,3.0231,3.0236,3.0288,3.0264,3.0262,3.025,3.0252,3.0284,3.0273,3.0255,3.0251,3.0254,3.0267,3.0276,3.0278,3.033,3.0277,3.0279,3.0281,3.0282,3.0431,3.0434,0,0,0,0,0,0,3.0232,3.0235,3.0287,3.0288,3.0241,3.0254,3.0255,3.027,3.0273,3.0271,3.0256,3.0252,3.0272,3.0275,3.0279,3.0349,3.028,3.0282,3.0284,3.0429,3.0432,3.0434,0,0,0,0,0,0,3.0231,3.0237,3.0287,3.0261,3.0266,3.0257,3.0274,3.0271,3.028,3.0274,3.0272,3.0267,3.0271,3.0275,3.0316,3.0349,3.0283,3.0286,3.0426,3.043,3.0433,3.0491,0,0,0,0,0,0,3.0229,3.0237,3.0259,3.0262,3.0268,3.0324,3.0276,3.0273,3.0285,3.028,3.0284,3.0282,3.0269,3.0313,3.0319,3.0352,3.0288,3.0423,3.0428,3.0432,3.0486,3.0496,3.0504,0,0,0,0,0,3.0226,3.0274,3.0261,3.0267,3.0296,3.0326,3.033,3.0314,3.0288,3.031,3.0307,3.0282,3.0345,3.0317,3.0324,3.0358,3.0421,3.0427,3.0432,3.0482,3.0494,3.0504,0,0,0,0,0,0,3.0275,3.0274,3.0259,3.0309,3.0318,3.0318,3.0346,3.0327,3.0343,3.0338,3.0318,3.0319,3.0364,3.0365,3.0335,3.0417,3.0378,3.0385,3.0414,3.0426,3.0435,3.0433,3.029,0,0,0,0,0,3.0292,3.0317,3.0315,3.036,3.0365,3.0355,3.0368,3.0355,3.0363,3.0367,3.0366,3.0375,3.0397,3.0411,3.0431,3.0486,3.0487,3.0513,3.0522,3.053,3.0536,3.0566,3.0578,3.0452,3.0452,3.0452,0,0,3.0327,3.033,3.0346,3.037,3.0375,3.0401,3.0358,3.0388,3.0407,3.0371,3.041,3.0411,3.0419,3.0468,3.049,3.047,3.0571,3.0537,3.0543,3.0545,3.0573,3.0584,3.0595,3.0456,3.0455,3.0454,0,0,3.0404,3.0408,3.0446,3.0453,3.0462,3.0455,3.0465,3.0468,3.0467,3.0506,3.048,3.0503,3.0541,3.0548,3.0557,3.0639,3.0617,3.0646,3.0694,3.0723,3.0733,3.0742,3.0771,3.0782,3.0652,3.0652,3.0652,0,3.0445,3.0484,3.0468,3.05,3.0511,3.0481,3.0519,3.0526,3.0541,3.055,3.0528,3.0576,3.0579,3.063,3.065,3.0658,3.0668,3.0644,3.0733,3.0742,3.0749,3.0777,3.0788,3.0655,3.0655,3.0655,3.0654,0,3.0536,3.0563,3.0593,3.0609,3.0624,3.0659,3.0648,3.0665,3.0651,3.0647,3.0688,3.0692,3.0712,3.0723,3.071,3.0772,3.076,3.0736,3.0697,3.0765,3.0791,3.0801,3.066,3.0659,3.0658,3.0657,0,0,3.0642,3.065,3.0661,3.0669,3.0677,3.0698,3.0733,3.0753,3.0768,3.078,3.0808,3.0842,3.082,3.083,3.0818,3.0844,3.0909,3.0817,3.0816,3.0834,3.0978,3.0996,3.1008,3.0895,3.0897,3.0899,3.0977,0,3.0718,3.0776,3.0763,3.0821,3.0847,3.0819,3.0849,3.0858,3.0855,3.0877,3.0874,3.0898,3.0867,3.0874,3.0898,3.0896,3.0938,3.089,3.0921,3.0922,3.0919,3.1022,3.104,3.1114,3.0987,3.0989,3.099,0,3.0813,3.083,3.0891,3.0896,3.0907,3.0934,3.0952,3.0973,3.0983,3.0979,3.0991,3.0975,3.1009,3.0971,3.1017,3.0985,3.0998,3.0999,3.1001,3.1003,3.096,3.1026,3.1138,3.1149,3.1006,3.1005,3.1004,0,3.0885,3.0923,3.0964,3.0971,3.0979,3.0999,3.1003,3.1011,3.1024,3.104,3.1049,3.1069,3.108,3.1096,3.1085,3.1058,3.1134,3.1094,3.1132,3.1132,3.1148,3.1147,3.1263,3.1157,3.1157,3.1156,3.1156,0,3.0971,3.1009,3.0996,3.1022,3.1064,3.1049,3.1091,3.1092,3.11,3.1125,3.1102,3.1127,3.1111,3.1134,3.1126,3.1166,3.1171,3.117,3.1167,3.1171,3.1172,3.1178,3.1173,3.1159,3.1159,3.1158,3.1158,0,3.1057,3.105,3.1094,3.1098,3.11,3.1131,3.1135,3.1159,3.1155,3.1188,3.1194,3.1189,3.1215,3.1206,3.1234,3.1229,3.128,3.1271,3.1277,3.1274,3.1312,3.1309,3.1436,3.1452,3.1336,3.1337,3.1338,0,3.1112,3.1141,3.1149,3.1165,3.1171,3.1196,3.121,3.1197,3.1213,3.1227,3.1249,3.1274,3.1292,3.1335,3.1334,3.1355,3.1346,3.1389,3.1349,3.1353,3.1347,3.1345,3.1348,3.1397,3.1398,3.1399,3.14,0,3.121,3.1205,3.1227,3.1248,3.1265,3.1281,3.1294,3.1308,3.1296,3.1315,3.1342,3.1357,3.1386,3.141,3.143,3.1434,3.1416,3.1413,3.1423,3.1427,3.143,3.1429,3.1298,3.141,3.1409,3.1408,3.1408,3.1407,3.1282,3.1307,3.1317,3.1341,3.1351,3.1364,3.1387,3.1387,3.1409,3.1432,3.1424,3.1455,3.1465,3.1489,3.1497,3.1521,3.1504,3.1518,3.1522,3.1525,3.153,3.1427,3.1524,3.1524,3.1524,3.1523,3.1523,0,3.1378,3.1384,3.1407,3.1427,3.1447,3.1429,3.1443,3.1461,3.1489,3.15,3.152,3.1551,3.1575,3.1576,3.1599,3.1618,3.161,3.1624,3.1622,3.1624,3.1544,3.1533,3.163,3.163,3.163,3.163,3.163,3.163,3.1431,3.1472,3.1469,3.1515,3.152,3.1551,3.1561,3.1573,3.1583,3.1619,3.1639,3.164,3.1647,3.1671,3.1692,3.1692,3.1701,3.1719,3.1715,3.164,3.1629,3.1619,3.1609,3.1721,3.1721,3.1793,3.1794,3.1794]},{"header":{"parameterUnit":"m.s-1","parameterCategory":1,"la1":30.2991,"la2":30.254,"lo1":-89.0895,"lo2":-89.0444,"dy":0.0017,"dx":0.0017,"nx":28,"ny":28,"refTime":"2025-04-07T21:00:00:Z","depth":0,"parameterNumber":3,"parameterNumberName":"V-component_of_WINDS"},"data":[0,0,0,0,0,0,0,0,0,0,0,0,0,0,0,0,0,0,0,0,0,0,0,0,0,0,0,0,0,0,0,0,0,0,0,0,0,0,0,0,0,0,0,0,0,0,0,0,0,0,0,0,0,0,0,0,0,0,-7.3667,-7.3668,0,-7.382,-7.3822,-7.3823,-7.3771,-7.3768,-7.3764,-7.3761,-7.3914,-7.3921,-7.3928,0,0,0,0,0,0,0,0,0,0,0,0,0,-7.3325,-7.3331,-7.3667,-7.3669,-7.367,-7.382,-7.3822,-7.3824,-7.3772,-7.3768,-7.3764,-7.376,-7.3912,-7.392,-7.3929,0,0,0,0,0,0,0,0,0,0,0,0,0,-7.3475,-7.3334,-7.3666,-7.3662,-7.3664,-7.3819,-7.3822,-7.3824,-7.3773,-7.3767,-7.3762,-7.3758,-7.3909,-7.3919,-7.393,-7.4097,0,0,-7.3963,-7.3968,0,0,0,0,0,0,0,0,-7.3467,-7.3488,-7.3661,-7.3663,-7.3665,-7.3771,-7.3757,-7.3916,-7.3774,-7.3731,-7.3761,-7.3755,-7.387,-7.3884,-7.3924,-7.4104,-7.4111,-7.3964,-7.3971,-7.3975,-7.3978,0,0,0,0,0,0,0,-7.3456,-7.3481,-7.3727,-7.3664,-7.3666,-7.3652,-7.3668,-7.3787,-7.3827,-7.3734,-7.3731,-7.375,-7.387,-7.3913,-7.3927,-7.4113,-7.3964,-7.3973,-7.398,-7.3984,-7.4438,-7.4443,0,0,0,0,0,0,-7.3445,-7.3473,-7.3722,-7.3732,-7.3551,-7.3662,-7.368,-7.3742,-7.3826,-7.3833,-7.3754,-7.3747,-7.3897,-7.3914,-7.3932,-7.4133,-7.3975,-7.3985,-7.3991,-7.4432,-7.4439,-7.4445,0,0,0,0,0,0,-7.3438,-7.3468,-7.3716,-7.3601,-7.3632,-7.3673,-7.3744,-7.3748,-7.3791,-7.3841,-7.3847,-7.3791,-7.3894,-7.3917,-7.4057,-7.4137,-7.399,-7.4,-7.4426,-7.4434,-7.4442,-7.4536,0,0,0,0,0,0,-7.3429,-7.3466,-7.3531,-7.3603,-7.3638,-7.384,-7.3749,-7.3754,-7.381,-7.3802,-7.3877,-7.3884,-7.3892,-7.4041,-7.4067,-7.415,-7.4008,-7.4418,-7.4429,-7.4439,-7.4526,-7.4547,-7.4564,0,0,0,0,0,-7.3417,-7.3551,-7.3535,-7.3565,-7.3721,-7.3845,-7.3864,-7.3871,-7.3817,-7.3882,-7.3914,-7.3882,-7.4124,-7.4056,-7.4085,-7.4172,-7.4413,-7.4426,-7.4438,-7.4517,-7.4542,-7.4564,0,0,0,0,0,0,-7.3486,-7.356,-7.3543,-7.3705,-7.3769,-7.3835,-7.3918,-7.3898,-7.3978,-7.3967,-7.3971,-7.3989,-7.4132,-7.4166,-7.4088,-7.4337,-7.426,-7.428,-7.431,-7.4335,-7.4353,-7.4342,-7.4017,0,0,0,0,0,-7.352,-7.3616,-7.3675,-7.3812,-7.3845,-7.3876,-7.393,-7.393,-7.3996,-7.4023,-7.4065,-7.4129,-7.4219,-7.4279,-7.4365,-7.453,-7.4545,-7.4604,-7.4624,-7.4639,-7.4655,-7.4744,-7.4771,-7.4486,-7.4486,-7.4486,0,0,-7.3591,-7.3644,-7.3704,-7.3827,-7.3877,-7.3974,-7.3899,-7.4006,-7.4078,-7.4039,-7.4173,-7.4207,-7.4278,-7.4432,-7.4501,-7.4464,-7.4737,-7.4655,-7.4667,-7.4675,-7.476,-7.4787,-7.4811,-7.4495,-7.4493,-7.4492,0,0,-7.3771,-7.3821,-7.394,-7.3992,-7.4068,-7.4088,-7.4117,-7.4187,-7.4208,-7.4343,-7.4315,-7.4401,-7.4557,-7.4609,-7.4656,-7.4855,-7.4829,-7.4883,-7.4983,-7.507,-7.5092,-7.5112,-7.5182,-7.5208,-7.4899,-7.4899,-7.4899,0,-7.385,-7.3997,-7.4003,-7.4113,-7.4167,-7.4137,-7.4257,-7.4307,-7.4407,-7.4445,-7.4402,-7.4597,-7.4643,-7.4808,-7.4857,-7.4896,-7.4928,-7.4874,-7.5089,-7.5109,-7.5127,-7.5194,-7.5221,-7.4905,-7.4904,-7.4904,-7.4903,0,-7.409,-7.4192,-7.4279,-7.4378,-7.4442,-7.4557,-7.4579,-7.4643,-7.4637,-7.4661,-7.4799,-7.4853,-7.495,-7.4989,-7.4984,-7.5153,-7.5127,-7.5087,-7.501,-7.516,-7.5223,-7.5249,-7.4914,-7.4912,-7.491,-7.4908,0,0,-7.4317,-7.4418,-7.445,-7.4494,-7.4577,-7.4655,-7.4767,-7.4863,-7.4917,-7.4987,-7.5081,-7.5214,-7.5177,-7.523,-7.523,-7.5307,-7.546,-7.5257,-7.5258,-7.5292,-7.5649,-7.5678,-7.5708,-7.5443,-7.5448,-7.5452,-7.5642,0,-7.4503,-7.4702,-7.4711,-7.4891,-7.4985,-7.4958,-7.5055,-7.5115,-7.5141,-7.5223,-7.525,-7.5344,-7.5289,-7.532,-7.5395,-7.5426,-7.5532,-7.5412,-7.5529,-7.5533,-7.5511,-7.5741,-7.5773,-7.595,-7.5667,-7.5671,-7.5674,0,-7.4747,-7.4826,-7.5016,-7.5084,-7.5124,-7.5212,-7.53,-7.538,-7.5447,-7.5459,-7.5519,-7.5509,-7.5622,-7.5541,-7.5696,-7.5615,-7.5663,-7.5686,-7.5692,-7.5703,-7.5612,-7.5757,-7.6006,-7.6033,-7.5713,-7.571,-7.5707,0,-7.4893,-7.5047,-7.518,-7.5219,-7.5302,-7.5364,-7.5402,-7.5464,-7.5521,-7.5597,-7.5633,-7.5722,-7.577,-7.5837,-7.585,-7.579,-7.6005,-7.5926,-7.6018,-7.6018,-7.6064,-7.6061,-7.6324,-7.6096,-7.6096,-7.6095,-7.6095,0,-7.51,-7.5217,-7.5247,-7.5329,-7.5459,-7.5467,-7.5595,-7.5628,-7.5683,-7.577,-7.5751,-7.5833,-7.5845,-7.5929,-7.594,-7.6066,-7.6088,-7.6101,-7.6102,-7.6102,-7.6101,-7.6133,-7.6121,-7.6102,-7.6101,-7.6099,-7.6098,0,-7.5285,-7.531,-7.5453,-7.5521,-7.554,-7.5633,-7.569,-7.5768,-7.5791,-7.5901,-7.5927,-7.5963,-7.6061,-7.608,-7.6196,-7.6203,-7.6353,-7.6342,-7.6331,-7.633,-7.642,-7.6411,-7.6713,-7.6752,-7.65,-7.6502,-7.6504,0,-7.5415,-7.5505,-7.5582,-7.5639,-7.568,-7.5772,-7.583,-7.5841,-7.5902,-7.5985,-7.6053,-7.6149,-7.6227,-7.6384,-7.642,-7.6508,-7.6498,-7.6598,-7.6511,-7.6509,-7.6499,-7.6493,-7.6502,-7.6614,-7.6617,-7.6619,-7.6621,0,-7.5643,-7.5651,-7.5736,-7.5825,-7.5895,-7.5966,-7.6033,-7.6081,-7.6101,-7.617,-7.627,-7.6331,-7.6449,-7.6544,-7.6632,-7.6669,-7.6648,-7.6648,-7.6674,-7.6675,-7.6664,-7.667,-7.6376,-7.6641,-7.6639,-7.6638,-7.6636,-7.6636,-7.5804,-7.5882,-7.5949,-7.6044,-7.6096,-7.6159,-7.6235,-7.6268,-7.6353,-7.6451,-7.6452,-7.6562,-7.6625,-7.6741,-7.6784,-7.6868,-7.6837,-7.6874,-7.6884,-7.6893,-7.6901,-7.6651,-7.6884,-7.6884,-7.6883,-7.6883,-7.6883,0,-7.603,-7.6072,-7.6159,-7.6254,-7.6329,-7.6304,-7.6377,-7.6441,-7.6538,-7.66,-7.6677,-7.6792,-7.6884,-7.6927,-7.7017,-7.7077,-7.707,-7.71,-7.7096,-7.7104,-7.6924,-7.6893,-7.7105,-7.7105,-7.7105,-7.7104,-7.7104,-7.7104,-7.6157,-7.6288,-7.6303,-7.6459,-7.6499,-7.6608,-7.6651,-7.6709,-7.6758,-7.6888,-7.6965,-7.6993,-7.7047,-7.7141,-7.7224,-7.7234,-7.7268,-7.7303,-7.7308,-7.7139,-7.7117,-7.7095,-7.7066,-7.731,-7.7311,-7.7481,-7.7483,-7.7484]}]]